www.pogodaiklimat.ru

Погода и климат >> Архив погоды >> Ирак >> Ubaydah Bin Al Jarrah


ПОГОДА в Ubaydah Bin Al Jarrah

  • Прогноз погоды в Ubaydah Bin Al Jarrah
  • Монитор погоды в Ubaydah Bin Al Jarrah
  • Климат города

АРХИВ ПОГОДЫ в Ubaydah Bin Al Jarrah

Время (UTC), дата Ветер
(напр.,м/с)
 
Видим.   Явления Облачность Т
(С)
Тd
(С)
f
(%)
Тe
(С)
Тes
(С)
Комфортность P
(гПа)
Po
(гПа)
Тmin
(С)
Tmax
(С)
R
(мм)
R24
(мм)
S
(см)
21 10.10 СЗ 4 10 км ясно +26.0 +8.7 33 +26 +26 жарко 1009.0 1009.0
00 11.10 СЗ 6 10 км ясно +24.8 +10.4 40 +26 +26 жарко 1008.8 1009.0
03 11.10 СЗ 7 10 км ясно +24.0 +9.7 40 +25 +25 комфорт 1010.0 1010.0
06 11.10 С 6 10 км ясно +28.8 +10.5 32 +29 +31 жарко 1011.6 1012.0 +23.5
09 11.10 СЗ 9 8000 м пыльный позёмок ясно +32.8 +9.8 24 +32 +33 жарко 1011.5 1012.0
12 11.10 СЗ 9 8000 м пыльный позёмок ясно +33.2 +8.8 22 +32 +33 жарко 1010.8 1011.0
15 11.10 СЗ 5 10 км ясно +30.0 +7.6 25 +29 +29 жарко 1011.0 1011.0
18 11.10 С 4 10 км ясно +25.0 +8.2 34 +25 +25 комфорт 1012.5 1013.0 +33.6
21 11.10 СЗ 5 10 км ясно +23.4 +8.4 38 +25 +25 комфорт 1012.9 1013.0
00 12.10 СЗ 3 10 км ясно +19.4 +9.1 51 +21 +21 комфорт 1012.9 1013.0
03 12.10 СЗ 2 10 км ясно +17.6 +7.7 52 +18 +18 1013.2 1013.0
06 12.10 СЗ 3 10 км ясно +25.8 +7.8 32 +26 +31 жарко 1014.6 1015.0 +17.2
09 12.10 С 6 10 км ясно +31.6 +5.1 19 +30 +34 жарко 1013.8 1014.0
12 12.10 С 6 10 км ясно +32.6 +5.1 18 +30 +32 жарко 1012.8 1013.0
15 12.10 С 4 10 км ясно +29.4 +4.6 21 +28 +28 жарко 1013.1 1013.0
18 12.10 СЗ 4 10 км ясно +23.8 +3.8 27 +23 +23 комфорт 1013.4 1013.0 +33.0
00 13.10 С 4 10 км ясно +20.4 +3.6 33 +21 +21 комфорт 1012.8 1013.0
03 13.10 СЗ 2 10 км ясно +18.4 +4.0 38 +19 +19 1012.9 1013.0
06 13.10 СЗ 4 10 км ясно +26.4 +4.7 25 +26 +29 жарко 1013.2 1013.0 +18.0
09 13.10 С 3 10 км ясно +34.2 +5.1 16 +32 +42 жарко 1012.2 1012.0
12 13.10 С 5 10 км ясно +35.4 +6.9 17 +33 +36 жарко 1010.3 1010.0
15 13.10 СЗ 3 10 км ясно +31.2 +5.6 20 +29 +29 жарко 1010.3 1010.0
18 13.10 СЗ 4 10 км ясно +26.8 +4.2 23 +26 +26 жарко 1011.3 1011.0 +36.2
21 13.10 СЗ 4 10 км ясно +23.6 +4.1 28 +23 +23 комфорт 1011.0 1011.0
00 14.10 С 2 10 км ясно +20.6 +5.1 36 +22 +22 комфорт 1010.8 1011.0
03 14.10 штиль 0 10 км ясно +17.8 +4.2 40 +18 +18 1011.0 1011.0
09 14.10 С 2 10 км ясно +34.6 +5.2 16 +32 +44 жарко 1011.0 1011.0
12 14.10 З 2 10 км ясно +35.6 +5.3 15 +33 +38 жарко 1009.5 1010.0
15 14.10 штиль 0 10 км ясно +30.8 +11.6 31 +31 +31 жарко 1008.9 1009.0
18 14.10 С 2 10 км ясно +26.2 +6.2 28 +26 +26 жарко 1009.8 1010.0 +36.2
21 14.10 штиль 0 10 км ясно +22.2 +5.9 35 +23 +23 комфорт 1009.8 1010.0
03 15.10 В 2 10 км ясно +21.8 +7.0 38 +23 +23 комфорт 1009.8 1010.0
06 15.10 Ю 2 10 км ясно +28.0 +6.4 25 +27 +32 жарко 1011.4 1011.0 +18.6
12 15.10 штиль 0 10 км ясно +37.0 +9.5 19 +36 +42 очень
жарко
1009.4 1009.0
15 15.10 штиль 0 10 км ясно +32.0 +13.0 31 +33 +33 жарко 1009.0 1009.0
00 16.10 штиль 0 10 км ясно +21.6 +10.2 48 +23 +23 комфорт 1010.1 1010.0
03 16.10 штиль 0 10 км ясно +17.6 +8.2 54 +18 +18 1010.8 1011.0
06 16.10 З 2 10 км ясно +25.0 +8.2 34 +25 +31 комфорт 1012.6 1013.0 +16.5
09 16.10 З 5 10 км ясно +32.6 +7.7 21 +31 +37 жарко 1011.8 1012.0
12 16.10 З 3 10 км ясно +33.8 +5.6 17 +31 +36 жарко 1010.5 1011.0
15 16.10 СЗ 2 10 км ясно +29.6 +8.5 27 +29 +29 жарко 1010.5 1011.0
18 16.10 СЗ 2 10 км ясно +23.4 +5.0 30 +23 +23 комфорт 1011.4 1011.0 +34.4
21 16.10 СЗ 2 10 км ясно +20.8 +3.0 31 +22 +22 комфорт 1011.6 1012.0
00 17.10 С 2 10 км ясно +17.8 +5.4 44 +18 +18 1011.7 1012.0
03 17.10 С 2 10 км ясно +16.6 +2.4 38 +17 +17 1011.9 1012.0
06 17.10 С 2 10 км ясно +27.0 +5.8 26 +26 +32 жарко 1012.9 1013.0 +16.2
09 17.10 С 2 10 км ясно +31.2 +2.0 16 +29 +40 жарко 1012.8 1013.0
12 17.10 СЗ 5 10 км ясно +32.0 +1.5 14 +29 +32 жарко 1011.2 1011.0

 

Местоположение метеостанции Ubaydah Bin Al Jarrah (Ирак): широта 32.49 долгота 45.75 высота над уровнем моря 21 м.

В архиве по умолчанию представлена погода в Ubaydah Bin Al Jarrah за последнюю неделю. Архивные данные за месяц целиком и за предыдущие месяцы, начиная с января 2011 года, Вы можете получить, выбрав интересующий диапазон дат из раскрывающегося списка и нажав кнопку "Ввод!".

Внимание! Время в таблицах - всемирное. Для получения местного времени необходимо прибавить поправку, которая в Ubaydah Bin Al Jarrah равна 3 ч.

Смотрите также архив погоды в соседних городах и на ближайших метеорологических станциях:

Погода в Kut-Al-Hai (Ирак) (45 км)
Погода в Badrah (Ирак) (70 км)
Погода в Azizyah (Ирак) (80 км)
Погода в Ali Al-Gharbi (Ирак) (91 км)
Погода в Rifai (Ирак) (92 км)
Погода в Diwaniya (Ирак) (92 км)
Погода в Hella (Ирак) (122 км)
Погода в Samawah (Ирак) (140 км)
Погода в Ilam (Иран) (142 км)
Погода в Najaf (Ирак) (146 км)

Пояснения к столбцам:

Ветер - указаны скорость ветра в м/с - средняя за 10 мин, порывы в срок и между сроками (в фигурных скобках) и направление, откуда дует ветер: С - северный, СВ - северо-восточный, В - восточный, ЮВ - юго-восточный, Ю - южный, ЮЗ - юго-западный, З - западный, СЗ - северо-западный.
Видимость - горизонтальная дальность видимости в метрах или километрах. При видимости от 1 до 10 км при отсутствии осадков обычно наблюдается дымка, при ухудшении видимости до 1 км и менее - туман. В сухую погоду видимость может ухудшаться дымом, пылью или мглою.
Явления - указаны атмосферные явления, наблюдавшиеся в срок или в последний час перед сроком; фигурными скобками обозначены явления, наблюдавшиеся между сроками (за 1-3 часа до срока); квадратными скобками обозначены град или гололедные отложения с указанием их диаметра в мм.
Облачность - указаны через наклонную черту общая и нижняя облачность в баллах и высота нижней границы облаков в метрах; квадратными скобками обозначены формы облаков: Ci - перистые, Cs - перисто-слоистые, Cc - перисто-кучевые, Ac - высококучевые, As - высокослоистые, Sc - слоисто-кучевые, Ns - слоисто-дождевые, Cu - кучевые, Cb - кучево-дождевые. Подробнее классификацию облаков см. в Атласе облаков (PDF).
T - Температура воздуха - температура, измеренная на высоте 2 м над землей.
Td - Температура точки росы - температура, при понижении до которой содержащийся в воздухе водяной пар достигнет насыщения.
f - Относительная влажность воздуха - влажноcть воздуха, измеренная на высоте 2 м над землей.
Te - Эффективная температура - температура, которую ощущает одетый по сезону человек в тени. Характеристика душности погоды. При расчете учитывается влияние влажности воздуха и скорости ветра на теплоощущения человека.
Tes - Эффективная температура на солнце - температура, которую ощущает человек, с поправкой на солнечный нагрев. Характеристика знойности погоды. Зависит от высоты солнца над горизонтом, облачности и скорости ветра. Ночью, в пасмурную погоду, а также при ветре 12 м/с и более поправка равна нулю.
P - Атмосферное давление - приведенное к уровню моря атмосферное давление.
Po - Атмосферное давление - измеренное на уровне метеостанции атмосферное давление.
Tmin - Минимальная температура - минимум температуры воздуха на высоте 2 м над землей.
Tmax - Максимальная температура - максимум температуры воздуха на высоте 2 м над землей.
R - Количество осадков - Количество выпавших осадков за период времени, мм. При наведении курсора мыши на число - период времени, за который выпало указанное количество осадков.
R24 - Количество осадков - Количество выпавших осадков за 24 часа, мм.
S - Снежный покров - Высота снежного покрова, см. При наведении курсора мыши на число - состояние снежного покрова и степень покрытия местности в баллах.